Printer-friendly version

IAU Minor Planet Center

Minor Planet Center

MPEC 2009-V28 : 2009 VR

The following Minor Planet Electronic Circular may be linked-to from your own Web pages, but must not otherwise be redistributed electronically.

A form allowing access to any MPEC is at the bottom of this page.


Read MPEC 2009-V27 Read MPEC 2009-V29


M.P.E.C. 2009-V28                                Issued 2009 Nov.  9, 12:35 UT

     The Minor Planet Electronic Circulars contain information on unusual
         minor planets and routine data on comets.  They are published
   on behalf of Commission 20 of the International Astronomical Union by the
          Minor Planet Center, Smithsonian Astrophysical Observatory,
                          Cambridge, MA 02138, U.S.A.

             Prepared using the Tamkin Foundation Computer Network

                              MPC@CFA.HARVARD.EDU
          URL http://www.cfa.harvard.edu/iau/mpc.html  ISSN 1523-6714

                                    2009 VR

Observations:
     K09V00R* C2009 11 08.24996 02 43 31.83 +16 27 59.8          20.6 V EV028G96
     K09V00R  C2009 11 08.25620 02 43 34.86 +16 29 38.0          20.2 V EV028G96
     K09V00R  C2009 11 08.26240 02 43 37.92 +16 31 15.8          20.4 V EV028G96
     K09V00R  C2009 11 08.29856 02 43 55.70 +16 40 46.8          21.0 V EV028G96
     K09V00R  C2009 11 08.30126 02 43 56.96 +16 41 28.3          20.6 V EV028G96
     K09V00R  C2009 11 08.32845 02 44 10.48 +16 48 38.0          20.9 V EV028G96
     K09V00R  C2009 11 08.32891 02 44 10.74 +16 48 45.4          20.6 V EV028G96
     K09V00R  C2009 11 08.37859 02 44 36.13 +17 01 52.2          20.5 V EV028G96
     K09V00R  C2009 11 08.37904 02 44 36.27 +17 01 59.1          21.4 V EV028G96
     K09V00R  C2009 11 08.37955 02 44 36.60 +17 02 07.5          21.1 V EV028G96
     K09V00R  C2009 11 08.37999 02 44 36.85 +17 02 15.2          21.2 V EV028G96
     K09V00R  C2009 11 08.40394 02 44 49.44 +17 08 41.3          20.8 R EV028926
     K09V00R  C2009 11 08.40770 02 44 51.51 +17 09 40.6          21.0 R EV028926
     K09V00R  C2009 11 08.41146 02 44 53.47 +17 10 41.0          21.0 R EV028926
     K09V00R  C2009 11 08.93768 02 51 07.08 +19 41 28.1                 EV028J95
     K09V00R  C2009 11 08.94931 02 51 14.73 +19 45 04.3                 EV028J95
     K09V00R  C2009 11 08.95635 02 51 19.34 +19 47 17.5          20.3 R EV028J95
     K09V00R  C2009 11 09.32566 02 56 01.72 +21 48 42.8          19.8 R EV028H01
     K09V00R  C2009 11 09.32965 02 56 04.56 +21 50 03.3          19.9 R EV028H01
     K09V00R  C2009 11 09.33573 02 56 08.90 +21 52 06.7          20.1 R EV028H01
     K09V00R  C2009 11 09.34192 02 56 13.34 +21 54 11.7          19.2 R EV028H01
     K09V00R  C2009 11 09.34810 02 56 17.80 +21 56 16.5          19.7 R EV028H01
     K09V00R  C2009 11 09.40417 02 56 59.99 +22 15 33.4          20.7 R EV028926
     K09V00R  C2009 11 09.40828 02 57 03.15 +22 16 57.0          20.7 R EV028926

Observer details:
926 Tenagra II Observatory.  Observers P. R. Holvorcem, M. Schwartz.  Measurer
    P. R. Holvorcem.  0.81-m f/7 Ritchey-Chretien + CCD.
G96 Mt. Lemmon Survey.  Observer A. R. Gibbs.  Measurers E. C. Beshore,
    A. Boattini, G. J. Garradd, A. R. Gibbs, A. D. Grauer, R. E. Hill,
    R. A. Kowalski, S. M. Larson, R. H. McNaught.  1.5-m reflector + CCD.
H01 Magdalena Ridge Observatory, Socorro.  Observer W. H. Ryan.  2.4-m f/8.9
    reflector + CCD.
J95 Great Shefford.  Observer P. Birtwhistle.  0.40-m f/6.0 Schmidt-Cassegrain
    + CCD.

Orbital elements:
2009 VR                                                  Earth MOID = 0.0140 AU
Epoch 2010 Jan. 4.0 TT = JDT 2455200.5                  MPC
M  11.25236              (2000.0)            P               Q
n   0.50203213     Peri.   41.44474     +0.05533165     -0.99649406
a   1.5678880      Node    45.48844     +0.89134716     +0.02097625
e   0.3948717      Incl.    5.04855     +0.44993182     +0.08099126
P   1.96           H   28.2           G   0.15           U   7
Residuals in seconds of arc
091108 G96  0.5-  0.0     091108 G96  0.9-  0.7-    091108 J95  0.7+  0.8+
091108 G96  0.8-  0.0     091108 G96  0.0   0.4-    091109 H01  0.2-  0.3+
091108 G96  0.4-  0.1+    091108 G96  0.3+  0.3+    091109 H01  0.2-  0.1+
091108 G96  0.2+  0.9+    091108 926  0.6+  0.9+    091109 H01  0.3-  0.4+
091108 G96  0.8-  0.3-    091108 926  1.3+  0.4+    091109 H01  0.4-  0.1+
091108 G96  0.6-  0.3-    091108 926  0.4+  0.9+    091109 H01  0.4-  0.2-
091108 G96  0.1-  0.2-    091108 J95  0.7-  0.3-    091109 926  0.5-  0.2+
091108 G96  0.5+  0.5-    091108 J95  0.4+  1.0-    091109 926  0.3+  0.2+

Ephemeris:
2009 VR                  a,e,i = 1.57, 0.39, 5                   q = 0.9488
Date    TT    R. A. (2000) Decl.     Delta      r     Elong.  Phase     V
2009 11 05    02 21.77   +06 33.4    0.0423   1.033   169.9     9.7    22.0
2009 11 06    02 26.74   +08 54.0    0.0382   1.029   171.8     7.9    21.7
2009 11 07    02 33.00   +11 47.9    0.0342   1.025   174.2     5.6    21.4
2009 11 08    02 41.06   +15 26.1    0.0304   1.021   177.1     2.9    21.0
2009 11 09    02 51.80   +20 03.5    0.0268   1.017   176.6     3.4    20.7
2009 11 10    03 06.71   +25 58.9    0.0235   1.014   171.0     8.8    20.7
2009 11 11    03 28.53   +33 31.0    0.0206   1.010   163.0    16.7    20.7
2009 11 12    04 02.56   +42 41.9    0.0184   1.006   152.4    27.1    20.8
2009 11 13    04 59.16   +52 36.4    0.0171   1.003   139.5    39.8    20.9
2009 11 14    06 32.50   +60 25.1    0.0169   0.999   125.4    53.8    21.3
2009 11 15    08 32.14   +62 26.5    0.0178   0.996   111.9    67.2    21.8

Timothy B. Spahr             (C) Copyright 2009 MPC           M.P.E.C. 2009-V28

Read MPEC 2009-V27 Read MPEC 2009-V29


MPEC number:

Enter an
MPEC number in one of the following forms:
  • 1997-B01 (the full form)
  • J97B01 (the packed version of the full form)
  • B01 (the abbreviated form)

Valid HTML 4.01!